Regional Weather Roundup
Issued by NWS

Home | Current Version | Previous Version | Graphics & Text | Print | Product List | Glossary On
Versions: 1 2 3 4 5 6 7 8 9 10 11 12 13 14 15 16 17 18 19 20 21 22 23 24 25 26 27 28 29 30 31 32 33 34 35 36 37 38 39 40 41 42 43 44 45 46 47 48 49 50
000
ASUS44 KMEG 061310
RWRTN
TENNESSEE HOURLY STATE WEATHER ROUNDUP
NATIONAL WEATHER SERVICE MEMPHIS TN
700 AM CST FRI MAR 06 2015

TNZ002-004-019-021-049-052-054-088>092-061400-
WEST TENNESSEE

CITY           SKY/WX    TMP DP  RH WIND       PRES   REMARKS
MEMPHIS INTL   PTCLDY    16   9  74 CALM      30.60R
NWS MEMPHIS      N/A     10 N/A N/A MISG        N/A
JACKSON        PTCLDY     5   0  79 SW3       30.59S
DYERSBURG      PTCLDY     9  -6  52 CALM      30.62S
UNION CITY     CLEAR      0  -2  92 CALM      30.59R
PARIS            N/A      5   0  78 E3        30.56S
LEXINGTON      CLEAR      5   1  85 CALM      30.57R
SAVANNAH       CLEAR     12   7  79 CALM      30.58R
$$

TNZ008-025-027-028-033-062-065-066-061400-
NORTH MIDDLE TENNESSEE

CITY           SKY/WX    TMP DP  RH WIND       PRES   REMARKS
NASHVILLE      PTCLDY    12   6  77 NW5       30.57R WCI   4
CLARKSVILLE    PTCLDY     1  -2  87 CALM      30.58S
SMYRNA         PTCLDY    10   6  84 CALM      30.59R
COOKEVILLE     CLEAR     14  10  85 CALM      30.49R
CROSSVILLE     MOSUNNY   13   8  81 NE6       30.42R WCI   4
$$

TNZ061-075-076-078-094-096-097-061400-
SOUTH MIDDLE TENNESSEE

CITY           SKY/WX    TMP DP  RH WIND       PRES   REMARKS
FAYETTEVILLE   CLEAR     12   9  85 N3          N/A
TULLAHOMA      CLEAR     12   9  85 N3          N/A
WINCHESTER     CLEAR     14  12  92 CALM      30.49R
MCMINNVILLE    CLEAR     16  12  86 N6        30.49R WCI   7
COLUMBIA         N/A     10  10 100 CALM      30.54R
SHELBYVILLE    CLEAR     12   9  85 N5        30.53S WCI   4
$$

TNZ017-018-042-046-047-061400-
NORTHEAST TENNESSEE

CITY           SKY/WX    TMP DP  RH WIND       PRES   REMARKS
TRI CITIES     MOSUNNY   15  10  80 CALM      30.46S
ELIZABETHTON   CLOUDY    16  10  79 CALM      30.45R
$$

TNZ012-013-036-069-073-074-061400-
CENTRAL EAST TENNESSEE

CITY           SKY/WX    TMP DP  RH WIND       PRES   REMARKS
KNOXVILLE      FLURRIES  20  14  77 N9        30.47S WCI   9
OAK RIDGE      MOSUNNY   19  11  70 NE5       30.50S WCI  12
GATLINBURG     CLOUDY    19  16  86 NE9       30.46S WCI   9
MORRISTOWN     SUNNY     18  12  79 E10       30.45S WCI   6
$$

TNZ083-085-099-061400-
SOUTHEAST TENNESSEE

CITY           SKY/WX    TMP DP  RH WIND       PRES   REMARKS
CHATTANOOGA    MOSUNNY   23  13  65 N9        30.48R WCI  13
$$

SKY/WX REPORTED AS FAIR MEANS FEW OR NO CLOUDS BELOW
12 THOUSAND FEET.




USA.gov is the U.S. government's official web portal to all federal, state and local government web resources and services.